Temperature
13 13 13 12 12 12 12 12 12 11 11 11 11 11 11 10 10 10 10 9 9 8 7 7 6 6 5 5 5 5 4 4 4 4 4 4 4 4 4 4 4 4 3
12 12 12 12 11 11 11 11 11 11 10 10 10 10 10 10 10 9 9 8 8 7 6 6 5 4 4 4 4 4 4 4 3 3 3 3 3 3 3 3 3 3 3
11 11 11 11 10 10 10 10 10 10 10 10 10 10 9 9 9 9 8 7 7 6 5 4 4 3 3 3 3 3 3 3 3 3 3 3 3 3 3 3 2 2 2
10 10 10 10 9 9 9 9 9 9 9 9 9 9 9 8 8 8 7 6 5 5 4 3 3 2 2 2 3 3 3 3 3 2 2 2 2 2 2 2 2 2 2
10 9 9 9 8 8 8 8 8 8 8 8 8 8 8 7 7 6 6 5 4 4 3 2 2 2 2 2 2 2 2 2 2 2 2 2 2 2 1 2 1 1 1
9 9 8 8 8 7 7 8 8 8 8 8 7 7 7 6 6 5 5 4 3 2 2 2 1 1 1 1 1 1 1 1 1 1 1 1 1 1 1 1 1 1 1
8 8 8 7 7 7 7 7 7 7 7 7 7 6 6 5 5 4 4 3 2 2 1 1 1 1 1 1 1 1 1 1 1 1 1 1 0 0 0 0 0 0 0
7 7 7 7 7 6 6 6 6 6 6 6 6 5 5 4 4 4 3 2 2 1 1 1 1 0 0 0 0 0 0 0 0 0 0 0 0 0 0 0 0 0 -0
7 7 7 6 6 6 6 6 6 5 5 5 5 4 4 4 3 3 2 2 1 1 1 0 0 0 0 0 0 0 0 0 0 0 0 0 0 -0 -0 -0 -0 -0 -0
6 6 6 6 6 6 5 5 5 5 4 4 4 3 3 3 2 2 1 1 1 0 0 0 0 0 -0 -0 -0 -0 -0 -0 -0 -0 -0 -0 -0 -0 -0 -0 -0 -0 -1
5 5 5 5 5 5 5 4 4 4 3 3 3 3 3 2 2 1 1 1 0 0 0 -0 -0 -0 -0 -0 -0 -0 -0 -0 -0 -0 -1 -1 -1 -1 -1 -1 -1 -1 -1
4 4 4 4 4 4 4 4 3 3 3 3 2 2 2 2 1 1 0 0 -0 0 0 -0 -0 -0 -0 -0 -0 -1 -1 -1 -1 -1 -1 -1 -1 -1 -1 -1 -1 -1 -1
3 3 3 3 3 3 3 3 3 3 2 2 2 2 2 1 1 0 -0 -0 -0 -0 -0 -0 -0 -0 -1 -1 -1 -1 -1 -1 -1 -1 -1 -1 -1 -1 -1 -1 -1 -2 -2
2 2 2 3 3 3 2 2 2 2 2 2 2 2 2 1 1 0 -0 -0 -1 -0 -0 -1 -1 -1 -1 -1 -1 -1 -1 -1 -1 -1 -1 -1 -1 -1 -1 -2 -2 -2 -2
1 1 1 2 2 2 2 2 2 2 2 2 2 1 1 1 1 0 0 -0 -1 -1 -1 -1 -1 -1 -1 -1 -1 -1 -1 -1 -1 -1 -1 -1 -2 -2 -2 -2 -2 -2 -2
-0 0 0 1 1 1 1 1 1 1 1 1 1 1 1 1 0 0 -0 -0 -1 -1 -1 -1 -0 -0 -0 -0 -1 -1 -1 -1 -1 -1 -1 -2 -2 -2 -2 -2 -3 -3 -3
-1 -1 -1 -0 -0 0 0 0 1 1 1 1 1 1 1 1 0 0 -0 -1 -1 -1 -1 -0 -0 -0 -0 -1 -1 -1 -1 -1 -2 -2 -2 -2 -2 -2 -3 -3 -3 -3 -3
-2 -2 -1 -1 -1 -1 -0 -0 -0 0 0 0 0 0 0 0 0 -0 -1 -1 -1 -1 -1 -0 -0 -0 -1 -1 -1 -1 -1 -2 -2 -2 -2 -2 -3 -3 -3 -3 -3 -4 -4
-2 -2 -2 -2 -1 -1 -1 -1 -1 -1 -0 -0 -0 -0 -0 -0 -0 -1 -1 -1 -1 -1 -1 -0 -0 -1 -1 -1 -1 -1 -2 -2 -2 -2 -2 -3 -3 -3 -4 -4 -4 -4 -5
-3 -3 -3 -2 -2 -2 -1 -1 -1 -1 -1 -1 -1 -0 -0 -0 -0 -0 -1 -1 -1 -1 -1 -1 -1 -1 -1 -1 -1 -2 -2 -2 -2 -3 -3 -3 -3 -4 -4 -4 -5 -5 -5
-4 -3 -3 -3 -3 -2 -2 -2 -2 -2 -1 -1 -1 -1 -1 -1 -0 -0 -0 -0 -1 -1 -1 -1 -1 -1 -1 -1 -2 -2 -2 -2 -3 -3 -3 -4 -4 -4 -5 -5 -5 -5 -6
-4 -4 -4 -3 -3 -3 -2 -2 -2 -2 -2 -1 -1 -1 -1 -1 -1 -1 -1 -1 -1 -1 -1 -1 -1 -1 -1 -2 -2 -2 -2 -2 -3 -3 -4 -4 -4 -5 -5 -5 -6 -6 -6
-5 -4 -4 -4 -4 -3 -3 -3 -3 -2 -2 -2 -2 -2 -1 -1 -1 -1 -1 -1 -1 -1 -1 -1 -1 -1 -2 -2 -2 -2 -2 -3 -3 -4 -4 -4 -5 -5 -6 -6 -6 -6 -7
-5 -5 -5 -4 -4 -4 -4 -3 -3 -3 -3 -2 -2 -2 -2 -2 -2 -1 -2 -1 -1 -1 -2 -2 -2 -2 -2 -2 -2 -3 -3 -3 -4 -4 -4 -5 -5 -6 -6 -6 -7 -7 -7
-5 -5 -5 -5 -5 -4 -4 -4 -4 -3 -3 -3 -3 -3 -2 -2 -2 -2 -2 -2 -2 -2 -2 -2 -2 -2 -3 -3 -3 -3 -3 -4 -4 -4 -5 -5 -6 -6 -6 -7 -7 -7 -8
-6 -6 -5 -5 -5 -5 -5 -4 -4 -4 -4 -4 -3 -3 -3 -3 -3 -3 -3 -3 -2 -2 -3 -3 -3 -3 -3 -3 -3 -4 -4 -4 -5 -5 -6 -6 -6 -6 -7 -7 -7 -8 -8
Wind_Speed
1 2 2 3 4 5 5 6 7 7 8 8 8 7 7 5 5 4 3 3 3 2 2 2 2 1 1 0 1 1 2 2 4 1 1 1 2 2 3 5 7 8 9
1 2 3 3 4 5 6 6 7 8 7 8 7 7 6 5 4 4 4 3 3 3 3 3 2 2 1 1 1 1 1 1 2 2 2 2 2 2 2 2 4 6 8
1 3 3 4 5 5 6 6 7 8 8 7 7 7 6 5 4 4 4 3 3 3 3 3 3 3 2 1 0 0 1 1 1 1 2 1 2 1 2 2 3 4 6
1 3 4 5 5 6 6 6 7 7 7 7 6 6 6 5 5 4 4 4 3 3 3 3 3 3 3 2 1 0 1 1 0 1 2 2 2 2 2 1 1 3 3
2 3 4 4 5 6 6 6 6 7 7 7 7 6 5 4 4 5 5 5 4 4 3 3 3 3 4 3 2 1 0 0 0 1 1 2 1 1 1 1 1 1 2
3 4 4 5 6 6 6 7 7 7 6 7 6 6 5 4 6 7 6 5 5 5 4 3 3 3 3 3 3 3 2 1 1 1 2 2 2 2 1 1 1 1 1
3 3 4 5 6 6 7 7 7 7 6 6 6 6 5 5 7 7 7 5 5 5 5 4 3 3 4 4 4 5 5 4 1 2 3 3 3 3 3 2 1 1 1
3 4 4 5 6 6 7 7 7 5 6 6 6 6 5 5 7 7 8 6 4 4 4 5 4 3 3 4 4 3 2 3 2 2 2 2 2 3 3 3 3 1 0
4 4 4 5 6 7 8 8 6 6 6 5 5 7 6 6 8 8 8 5 4 4 4 4 5 4 6 6 5 3 2 1 2 4 5 4 4 5 6 3 3 2 0
5 5 4 5 7 8 8 7 5 6 6 6 6 6 6 6 8 10 10 5 5 4 3 4 6 6 7 7 6 5 4 2 1 2 3 4 4 3 3 3 3 3 1
5 4 4 5 7 7 6 6 6 6 6 6 6 5 6 7 9 11 12 6 6 5 4 4 4 8 8 8 7 6 6 4 4 3 2 1 1 1 2 3 3 3 3
5 4 4 4 5 5 7 7 7 8 8 7 6 6 5 6 8 10 13 12 9 6 5 5 5 9 9 9 7 7 8 5 4 3 2 2 2 2 2 2 3 4 3
5 5 4 4 4 5 7 8 7 8 7 7 6 6 6 5 7 13 14 14 14 7 6 8 9 10 9 7 8 9 6 4 4 4 4 3 3 3 2 2 2 2 2
6 5 4 4 4 5 6 7 8 8 8 7 8 7 6 6 6 6 7 8 11 8 6 8 11 11 8 7 6 5 4 5 5 4 4 3 3 3 3 3 2 2 1
6 5 4 4 5 6 6 7 8 9 9 10 8 8 8 8 10 14 10 7 6 6 6 4 3 3 4 4 4 4 4 4 5 4 4 4 4 4 3 3 3 3 2
6 5 4 4 4 5 5 6 10 10 13 14 12 10 9 11 11 14 16 15 15 14 8 5 6 7 7 7 6 6 5 6 6 5 5 5 5 5 4 3 3 4 4
7 7 5 5 5 5 5 6 5 7 12 15 15 16 14 13 14 14 14 15 16 15 9 7 7 8 7 7 7 6 6 6 6 6 6 6 5 5 4 4 4 4 5
8 8 6 5 5 6 6 6 5 6 6 6 10 16 17 16 15 15 15 12 9 11 7 8 8 8 7 7 7 7 7 6 6 6 6 6 6 5 5 5 6 6 5
8 6 5 5 5 5 5 5 5 6 6 5 4 7 14 15 15 16 15 9 8 8 8 8 8 8 8 8 8 7 7 7 7 6 7 7 7 6 6 6 6 9 7
7 9 8 6 5 5 5 5 5 6 6 6 6 6 6 7 7 8 9 8 8 9 9 9 9 9 8 8 8 7 7 7 8 7 7 7 7 7 7 8 7 7 7
7 7 8 6 5 5 5 5 5 6 6 6 6 7 10 7 8 8 8 8 8 9 9 8 8 8 8 8 7 8 9 8 8 8 8 7 7 7 7 7 7 7 6
7 6 6 5 5 5 5 5 5 5 6 6 5 6 11 7 6 7 7 8 7 7 7 7 7 7 8 8 8 9 9 9 8 8 8 7 7 8 7 7 7 7 7
6 6 6 5 5 6 5 4 4 4 5 5 4 5 5 6 6 7 7 6 6 6 6 6 7 7 7 8 9 8 9 9 8 8 8 8 7 7 7 8 8 8 8
6 6 6 5 4 4 4 4 4 4 4 4 4 4 4 5 5 6 5 5 5 5 5 6 6 7 8 7 8 10 11 10 10 9 10 8 8 7 7 7 8 8 8
5 5 5 5 5 4 4 4 4 4 3 3 3 3 3 3 4 3 3 4 4 4 5 5 4 5 7 8 8 9 11 12 12 11 10 7 8 8 7 7 7 7 8
5 5 4 4 4 4 4 3 3 3 3 2 2 2 2 3 3 3 3 3 3 3 4 4 5 6 7 7 9 10 11 12 13 13 11 7 7 7 7 7 8 8 8
Wind_Direction
128 136 126 122 127 133 138 141 140 137 139 140 139 135 131 128 126 123 126 136 151 154 147 153 153 135 128 5 330 298 271 255 253 161 117 120 112 95 65 59 55 50 43
137 136 139 136 134 135 137 138 139 138 135 135 135 133 133 135 135 137 141 146 157 169 164 155 160 145 125 64 16 327 299 283 244 208 151 131 113 111 84 65 49 45 42
156 157 159 158 155 150 145 141 139 136 133 132 133 135 138 140 138 139 146 148 154 164 165 166 166 158 154 134 86 341 320 321 291 184 152 114 97 88 84 62 48 33 36
193 180 184 180 168 157 149 144 142 139 138 138 134 136 140 142 143 144 146 143 142 141 143 150 153 159 166 160 142 0 329 333 28 148 135 114 101 83 93 79 40 28 17
228 208 203 180 161 154 151 147 142 140 142 139 134 134 138 144 155 156 154 154 154 145 134 129 133 142 158 159 155 167 130 185 159 147 141 131 132 122 117 86 77 15 23
242 227 200 173 167 166 160 151 146 144 142 140 145 147 152 163 174 173 163 160 162 159 154 139 126 114 118 114 112 115 132 158 194 174 170 175 163 148 129 110 91 56 337
256 231 198 183 180 176 164 158 159 158 152 152 157 160 166 178 181 180 176 159 162 169 169 165 160 150 119 94 89 74 53 52 102 171 181 184 170 171 149 128 126 139 227
267 242 209 191 187 175 169 173 169 160 162 165 170 170 169 188 190 188 179 149 156 170 176 177 172 164 163 151 129 103 65 36 53 95 142 153 151 150 152 151 150 131 73
280 259 227 201 190 182 186 184 173 166 170 172 171 173 177 193 197 193 169 145 161 177 181 180 179 183 200 178 154 149 127 18 63 110 121 129 136 148 145 119 117 94 63
291 277 246 210 198 197 195 184 174 172 176 171 175 179 182 192 202 199 177 158 171 181 186 198 201 198 208 194 167 170 187 201 145 98 83 78 73 90 136 143 149 143 166
297 283 255 223 209 201 189 179 172 170 168 174 181 187 191 201 208 207 194 174 181 183 191 199 211 213 214 208 189 185 206 188 168 158 143 124 95 91 101 130 149 152 165
296 280 260 235 213 193 181 179 175 173 176 182 188 197 205 209 212 215 211 202 193 184 194 197 207 216 219 217 203 200 212 189 156 164 181 200 203 204 186 168 174 180 191
298 284 270 245 214 192 188 186 184 186 189 191 195 207 210 204 213 219 220 216 209 195 197 206 211 217 219 222 218 211 205 171 166 188 207 213 206 192 162 153 161 181 225
293 286 271 245 227 208 201 196 195 195 197 197 203 211 209 203 205 209 212 220 217 210 200 212 216 218 212 210 219 216 185 179 186 200 205 200 171 165 178 175 175 168 219
293 283 268 246 232 222 215 212 208 209 204 201 206 204 203 214 216 207 198 202 196 192 170 168 180 186 195 193 195 198 191 194 205 192 193 192 195 193 195 178 176 172 193
291 282 268 252 240 230 224 228 222 218 220 218 212 205 213 218 217 213 212 212 210 202 188 188 199 204 208 209 210 208 206 208 206 201 201 204 205 204 203 185 182 191 212
285 281 271 256 244 235 227 224 230 226 225 224 223 221 221 221 222 219 215 213 212 206 205 204 208 210 212 211 211 211 214 211 201 201 205 206 205 204 202 204 201 207 221
283 276 270 261 248 238 230 228 228 225 222 224 225 226 227 227 224 220 215 207 210 209 207 210 213 211 210 212 214 216 217 208 202 205 205 204 201 199 204 210 209 212 220
282 273 267 265 257 245 232 225 228 228 228 224 214 222 225 226 224 223 215 206 205 209 210 212 212 211 213 213 215 214 211 210 206 202 206 204 201 199 210 214 214 226 224
281 275 271 266 260 253 238 230 228 228 227 224 223 220 205 205 211 211 210 205 208 213 212 214 214 213 213 213 212 210 211 212 210 210 210 207 203 202 212 214 215 218 222
282 277 271 266 256 252 244 237 233 232 231 229 229 219 208 207 211 210 209 210 212 214 213 213 213 212 212 211 210 211 212 215 213 211 210 207 203 206 212 214 216 218 220
280 274 266 262 260 256 255 244 234 233 232 232 234 227 223 217 213 214 215 215 215 213 210 208 211 212 210 210 209 210 214 218 215 211 209 206 205 207 207 211 215 216 217
280 276 270 263 257 258 261 255 245 238 236 232 229 223 221 218 218 218 217 214 209 211 209 208 212 213 210 209 208 208 214 217 212 204 205 205 205 206 206 211 212 213 218
277 276 273 269 260 255 255 257 251 245 240 236 231 226 221 219 219 218 215 210 206 207 205 207 211 213 209 209 214 216 218 216 208 204 201 202 203 204 205 212 215 217 221
276 275 271 266 261 257 255 255 253 251 244 237 233 230 224 218 217 215 209 203 199 203 204 202 206 213 216 214 213 214 218 218 213 207 201 202 205 205 206 211 215 218 220
275 277 277 269 260 257 255 253 254 253 247 239 233 230 224 216 212 207 200 195 196 198 200 201 207 210 215 219 221 221 223 225 224 217 205 200 205 210 209 216 217 221 225
Height
1474 1476 1478 1479 1481 1483 1485 1487 1489 1491 1494 1496 1498 1500 1502 1503 1503 1504 1504 1504 1504 1504 1503 1503 1503 1502 1502 1502 1502 1502 1502 1502 1502 1502 1502 1502 1503 1503 1502 1502 1502 1501 1501
1471 1472 1474 1476 1477 1479 1481 1483 1485 1487 1490 1492 1494 1495 1497 1498 1498 1499 1499 1499 1499 1499 1498 1498 1498 1498 1498 1498 1498 1497 1497 1497 1498 1498 1498 1498 1499 1499 1499 1499 1499 1498 1498
1468 1469 1471 1472 1473 1475 1477 1479 1482 1483 1485 1487 1489 1491 1492 1492 1493 1493 1494 1493 1493 1493 1493 1493 1493 1493 1493 1493 1493 1493 1493 1493 1493 1494 1494 1494 1495 1495 1496 1495 1495 1495 1495
1466 1466 1467 1468 1470 1472 1474 1476 1478 1479 1481 1483 1485 1486 1487 1487 1488 1488 1488 1488 1488 1488 1489 1489 1489 1489 1489 1489 1489 1489 1489 1489 1490 1490 1490 1491 1491 1492 1492 1492 1492 1492 1492
1463 1463 1464 1465 1466 1468 1470 1472 1474 1475 1477 1479 1480 1481 1482 1483 1483 1483 1483 1484 1484 1484 1484 1485 1485 1485 1485 1485 1485 1485 1486 1486 1486 1486 1487 1487 1488 1489 1489 1489 1489 1489 1489
1459 1460 1460 1461 1463 1464 1466 1468 1469 1471 1473 1474 1476 1477 1478 1478 1478 1479 1479 1479 1479 1480 1480 1481 1481 1481 1481 1482 1482 1482 1482 1482 1482 1483 1483 1484 1485 1485 1486 1486 1486 1486 1487
1455 1456 1456 1457 1459 1460 1462 1463 1465 1467 1469 1470 1471 1472 1473 1473 1474 1474 1474 1475 1475 1476 1476 1477 1477 1478 1478 1478 1478 1478 1478 1479 1480 1480 1480 1481 1481 1482 1483 1483 1483 1484 1484
1452 1452 1452 1453 1454 1456 1457 1459 1461 1462 1464 1465 1466 1467 1468 1469 1469 1470 1470 1471 1471 1472 1473 1473 1474 1474 1475 1475 1475 1475 1476 1476 1476 1477 1478 1478 1479 1479 1480 1481 1481 1482 1482
1448 1448 1448 1449 1450 1451 1453 1454 1456 1457 1459 1460 1461 1462 1463 1464 1465 1465 1466 1467 1467 1468 1469 1470 1470 1471 1472 1472 1472 1473 1473 1474 1474 1475 1475 1476 1476 1477 1478 1478 1479 1479 1480
1444 1443 1444 1444 1445 1446 1448 1449 1451 1452 1453 1455 1456 1457 1458 1459 1460 1461 1462 1463 1464 1464 1465 1466 1467 1468 1468 1469 1470 1470 1471 1472 1472 1473 1473 1474 1475 1475 1476 1477 1477 1478 1478
1439 1439 1439 1439 1440 1441 1442 1444 1445 1447 1448 1449 1450 1452 1453 1454 1455 1456 1457 1458 1460 1460 1461 1462 1464 1465 1465 1466 1467 1468 1469 1469 1470 1471 1471 1472 1473 1473 1474 1475 1475 1476 1476
1435 1434 1434 1435 1435 1436 1437 1438 1439 1441 1442 1443 1445 1446 1448 1449 1450 1451 1453 1454 1455 1456 1458 1459 1460 1461 1462 1463 1464 1465 1466 1467 1468 1468 1469 1470 1471 1471 1472 1472 1473 1473 1474
1430 1430 1429 1429 1430 1430 1431 1432 1433 1435 1436 1437 1439 1440 1442 1444 1445 1447 1448 1450 1451 1452 1454 1455 1457 1458 1459 1460 1461 1462 1463 1464 1465 1466 1467 1468 1468 1469 1469 1470 1470 1471 1471
1426 1425 1424 1424 1424 1425 1426 1427 1428 1429 1430 1432 1433 1435 1437 1438 1440 1441 1443 1445 1446 1448 1450 1451 1453 1454 1456 1457 1458 1459 1460 1461 1462 1463 1464 1464 1465 1465 1466 1467 1467 1467 1468
1421 1420 1419 1419 1419 1419 1420 1421 1422 1424 1425 1426 1428 1430 1431 1432 1435 1437 1438 1440 1442 1444 1446 1447 1448 1450 1451 1453 1454 1456 1457 1457 1458 1459 1460 1461 1461 1462 1462 1463 1463 1463 1464
1416 1415 1414 1414 1414 1414 1415 1415 1416 1418 1419 1421 1422 1424 1425 1428 1429 1431 1433 1435 1437 1439 1440 1441 1444 1445 1447 1449 1450 1451 1452 1453 1454 1455 1456 1456 1457 1457 1458 1458 1459 1459 1459
1411 1410 1409 1408 1408 1408 1409 1409 1410 1412 1413 1415 1416 1418 1420 1422 1423 1425 1427 1430 1432 1434 1435 1436 1438 1441 1442 1444 1445 1447 1448 1449 1449 1450 1451 1451 1452 1452 1453 1453 1454 1454 1454
1406 1405 1404 1403 1403 1403 1403 1404 1405 1406 1407 1408 1411 1412 1414 1416 1418 1420 1422 1425 1426 1428 1429 1431 1433 1435 1437 1438 1440 1441 1442 1443 1444 1444 1445 1446 1446 1447 1447 1448 1448 1448 1448
1400 1399 1398 1398 1397 1397 1397 1398 1399 1400 1401 1403 1404 1407 1409 1410 1413 1415 1416 1418 1419 1421 1423 1425 1427 1429 1431 1433 1434 1435 1436 1437 1438 1438 1439 1440 1440 1441 1441 1442 1442 1442 1442
1395 1394 1393 1392 1392 1392 1392 1392 1393 1394 1395 1397 1398 1400 1403 1404 1406 1408 1410 1411 1413 1415 1418 1419 1421 1423 1425 1426 1427 1428 1429 1430 1431 1432 1433 1433 1434 1434 1435 1435 1436 1436 1436
1390 1388 1387 1387 1386 1386 1386 1387 1387 1388 1389 1391 1392 1394 1396 1398 1399 1401 1403 1405 1407 1409 1411 1413 1415 1416 1418 1419 1420 1421 1422 1423 1424 1425 1426 1426 1427 1427 1428 1428 1429 1429 1429
1384 1383 1382 1381 1381 1381 1381 1381 1382 1383 1384 1385 1386 1388 1390 1391 1393 1395 1397 1399 1401 1403 1405 1406 1408 1409 1410 1412 1413 1414 1415 1415 1416 1417 1418 1419 1419 1420 1421 1421 1422 1422 1422
1379 1378 1377 1376 1375 1375 1375 1376 1376 1377 1378 1379 1381 1382 1384 1385 1387 1389 1391 1393 1394 1396 1398 1399 1400 1402 1403 1404 1405 1406 1407 1408 1409 1410 1411 1411 1412 1413 1413 1414 1415 1415 1416
1374 1373 1372 1371 1370 1370 1370 1371 1371 1372 1373 1374 1375 1377 1378 1380 1381 1383 1384 1386 1388 1389 1391 1392 1393 1395 1396 1397 1398 1399 1400 1401 1401 1402 1403 1404 1404 1405 1406 1407 1408 1408 1409
1369 1368 1367 1366 1366 1366 1366 1366 1366 1367 1368 1369 1371 1372 1373 1375 1376 1377 1379 1380 1382 1383 1384 1385 1387 1388 1389 1390 1391 1391 1392 1393 1394 1395 1396 1396 1397 1398 1399 1400 1401 1401 1402
1365 1364 1363 1362 1362 1362 1362 1362 1362 1363 1364 1365 1366 1367 1368 1369 1371 1372 1373 1374 1376 1377 1378 1379 1380 1381 1382 1383 1384 1385 1385 1386 1387 1388 1389 1390 1390 1391 1392 1393 1394 1395 1395